Tracking 28790 objects as of 19-Apr-2024
HD Live streaming from Space Station
objects crossing your sky now

OPS 4682 DEB

Track OPS 4682 DEB now!
10-day predictions


NORAD ID: 38441
Int'l Code: 1965-027EW
Perigee: 1,262.4 km
Apogee: 1,310.0 km
Inclination: 90.2 °
Period: 111.1 minutes
Semi major axis: 7657 km
RCS: 0.0082 m2 (small)
Launch date: April 3, 1965
Source: United States (US)
Launch site: AIR FORCE WESTERN TEST RANGE (AFWTR)

Note: This is SATELLITE DEBRIS
Your satellite tracking list
Your tracking list is empty




NASA's NSSDC Master Catalog

Two Line Element Set (TLE):
1 38441U 65027EW  24107.42060404  .00000520  00000-0  18066-2 0  9994
2 38441  90.2495 350.4137 0031122  95.3795 265.0876 12.95676635509863
Source of the keplerian elements: AFSPC